Home > Weather > Hartberg > Past weeks

Flag for Austria Weather for the Past 2 Weeks in Hartberg, Styria, Austria

Now
48 °F

Sprinkles. Mostly cloudy.


Feels Like: 46 °F
Forecast: 47 / 66 °F
Wind: 6 mph from North

Location: Graz-Thalerhof-Flughafen

Current Time: May 5, 2016 at 6:53:08 AM

Latest Report: May 5, 2016 at 6:20 AM


Visibility: N/A

Pressure: 30.21 "Hg

Humidity: 71%

Dew Point: 39 °F

Location of HartbergLocation

Historic Weather in Hartberg — Graph

°F

Hartberg Temperature Yesterday

Maximum temperature yesterday: 59 °F (at 4:50 PM)
Minimum temperature yesterday: 52 °F (at 12:50 AM)
Average temperature yesterday: 55 °F

High & Low Weather Summary for the Past Weeks

 TemperatureHumidityPressure
High70 °F (Apr 22, 1:20 PM)100% (Apr 22, 5:20 AM)30.36 "Hg (Apr 22, 5:20 AM)
Low27 °F (Apr 26, 4:50 AM)24% (Apr 25, 5:20 PM)29.56 "Hg (Apr 23, 4:50 PM)
Average49 °F67%29.96 "Hg
* Reported Apr 20 5:20 AM — May 5 5:20 AM, Hartberg, Weather by CustomWeather, © 2016

Note: Actual official high and low records may vary slightly from our data, if they occured in-between our weather recording intervals... More about our weather records

Advertising

Hartberg Weather History for the Previous 24 Hours

Scroll right to see more
 ConditionsComfort  
Time TempWeatherWind HumidityBarometerVisibility
5:20 AM
Thu, May 5
50 °FLight rain. Passing clouds.7 mph58%30.21 "HgN/A
4:50 AM50 °FPartly cloudy.7 mph58%30.18 "HgN/A
4:20 AM50 °FPartly cloudy.7 mph54%30.18 "HgN/A
3:50 AM52 °FPassing clouds.10 mph50%30.18 "HgN/A
3:20 AM52 °FPartly cloudy.10 mph50%30.18 "HgN/A
2:50 AM52 °FSprinkles. Partly cloudy.10 mph50%30.18 "HgN/A
2:20 AM52 °FPartly cloudy.9 mph50%30.18 "HgN/A
1:50 AM52 °FPartly cloudy.9 mph50%30.21 "HgN/A
1:20 AM52 °FPassing clouds.10 mph50%30.21 "HgN/A
12:50 AM52 °FPassing clouds.10 mph50%30.21 "HgN/A
12:20 AM52 °FPartly cloudy.10 mph50%30.21 "HgN/A
11:50 PM
Wed, May 4
52 °FPassing clouds.12 mph50%30.18 "HgN/A
11:20 PM52 °FPassing clouds.10 mph50%30.18 "HgN/A
10:50 PM52 °FPassing clouds.13 mph50%30.18 "HgN/A
10:20 PM54 °FPassing clouds.14 mph44%30.18 "HgN/A
9:50 PM54 °FPassing clouds.10 mph47%30.18 "HgN/A
9:20 PM54 °FPartly cloudy.13 mph47%30.18 "HgN/A
8:50 PM54 °FBroken clouds.13 mph44%30.15 "HgN/A
8:20 PM54 °FBroken clouds.13 mph47%30.15 "HgN/A
7:50 PM54 °FPartly sunny.15 mph47%30.15 "HgN/A
7:20 PM55 °FPartly sunny.16 mph44%30.15 "HgN/A
6:50 PM57 °FPartly sunny.17 mph41%30.12 "HgN/A
6:20 PM59 °FScattered clouds.17 mph42%30.12 "HgN/A
5:50 PM59 °FScattered clouds.15 mph39%30.12 "HgN/A
5:20 PM59 °FScattered clouds.16 mph42%30.12 "HgN/A
4:50 PM59 °FPartly sunny.15 mph45%30.12 "HgN/A
4:20 PM57 °FPartly sunny.12 mph48%30.12 "HgN/A
3:50 PM57 °FPartly sunny.10 mph44%30.12 "HgN/A
3:20 PM57 °FPartly sunny.7 mph44%30.12 "HgN/A
2:50 PM55 °FPartly sunny.10 mph47%30.12 "HgN/A
2:20 PM55 °FPartly sunny.15 mph47%30.12 "HgN/A
1:50 PM55 °FSprinkles. Partly sunny.17 mph51%30.12 "HgN/A
1:20 PM57 °FPartly sunny.16 mph44%30.12 "HgN/A
12:50 PM57 °FPartly sunny.16 mph44%30.09 "HgN/A
12:20 PM57 °FPartly sunny.10 mph44%30.09 "HgN/A
11:50 AM57 °FBroken clouds.10 mph44%30.09 "HgN/A
11:20 AM57 °FBroken clouds.14 mph44%30.09 "HgN/A
10:50 AM57 °FPartly sunny.17 mph44%30.09 "HgN/A
10:20 AM57 °FPartly sunny.13 mph48%30.09 "HgN/A
9:50 AM57 °FPartly sunny.15 mph48%30.07 "HgN/A
9:20 AM55 °FPartly sunny.13 mph51%30.07 "HgN/A
8:50 AM57 °FPartly sunny.8 mph51%30.07 "HgN/A
8:20 AM55 °FPartly sunny.6 mph51%30.07 "HgN/A
7:50 AM55 °FPartly sunny.2 mph55%30.04 "HgN/A
7:20 AM54 °FPartly sunny.1 mph67%30.04 "HgN/A
6:50 AM54 °FPartly sunny.2 mph58%30.04 "HgN/A
6:20 AM54 °FPassing clouds.3 mph58%30.01 "HgN/A
Weather by CustomWeather, © 2016

See weather overviewHow to use our weather pages